#timestamp,LO_Frequency,Hit,StdDev 
1624010415.6,286046998.6,N
1624010435.4,286047001.2,N
1624010455.2,286047000.5,N
1624010475.1,286047000.4,N
1624010476.0,286047000.4,N
1624010495.8,286046998.1,N
1624010515.7,286046999.4,N
1624010535.5,286047000.4,N
1624010555.3,286047000.5,N
1624010575.2,286047000.9,N
1624010595.0,286046999.9,N
1624010595.9,286046999.9,N
1624010615.7,286046999.9,N
1624010635.6,286047001.0,N
1624010655.4,286047000.5,N
1624010675.3,286047001.2,N
1624010695.1,286047000.4,N
1624010696.0,286047000.4,N
1624010715.8,286047001.1,N
1624010735.7,286047000.9,N
1624010755.5,286047000.5,N
1624010775.3,286047001.0,N
1624010795.2,286046999.4,N
1624010815.0,286046997.1,Y
1624010815.9,286046997.1,P
1624010835.8,286046998.3,N
1624010855.6,286046998.4,N
1624010875.4,286046998.3,N
1624010895.3,286047001.1,N
1624010915.1,286047000.3,N
1624010935.8,286046999.9,N
1624010955.7,286047000.2,N
1624010975.5,286047000.6,N
1624010995.4,286047000.4,N
1624011015.2,286047002.5,N
1624011035.0,286047002.8,N
1624011035.9,286047002.8,N
1624011055.8,286047002.7,N
1624011075.6,286047000.2,N
1624011095.5,286047004.4,N
1624011115.3,286047001.7,N
1624011135.1,286047001.7,N
1624011155.9,286047002.2,N
1624011175.7,286047001.5,N
1624011195.5,286047001.8,N
1624011215.4,286047002.8,N
1624011235.2,286047000.0,N
1624011255.1,286047000.9,N
1624011256.0,286047000.9,N
1624011275.8,286047000.5,N
1624011295.6,286047000.6,N
1624011345.5,286047002.2,E
1624011355.4,286047001.0,N
1624011375.3,286046998.9,P
1624011395.1,286046999.2,N
1624011415.8,286046998.5,N
1624011435.7,286046997.1,Y
1624011455.5,286046997.8,P
1624011475.4,286046999.5,N
1624011495.2,286046996.7,P
1624011515.0,286046999.6,N
1624011515.9,286046999.6,N
1624011535.8,286046998.8,N
1624011555.6,286046998.9,N
1624011575.5,286046998.3,N
1624011595.3,286047000.8,N
1624011615.1,286046999.7,N
1624011635.9,286047002.3,N
1624011655.7,286047002.3,N
1624011675.6,286047000.2,N
1624011695.4,286046999.9,N
1624011715.2,286046998.3,N
1624011735.1,286046998.8,N
1624011736.0,286046998.8,N
1624011755.8,286046998.7,N
1624011775.6,286046999.2,N
1624011795.5,286046997.1,N
1624011815.3,286046997.1,N
1624011835.2,286046998.0,N
1624011855.9,286046996.7,N
1624011875.7,286046997.5,N
1624011895.6,286046999.2,N
1624011915.4,286046998.7,N
1624011935.2,286046998.8,N
1624011955.1,286046999.0,N
1624011956.0,286046999.0,N
1624011975.8,286046999.4,N
1624011995.7,286046998.7,N
1624012015.5,286046998.9,N
1624012035.3,286046999.4,N
1624012055.2,286046998.8,N
1624012075.0,286046999.1,N
1624012075.9,286046999.1,N
1624012095.8,286046999.6,N
1624012115.6,286046997.0,N
1624012135.4,286046998.0,N
1624012155.3,286046997.8,N
1624012175.1,286046995.6,Y
1624012195.9,286046996.7,P
1624012215.7,286046997.3,N
1624012235.5,286047011.9,P
1624012255.4,286046997.8,N
1624012275.2,286046995.3,N
1624012295.0,286046997.5,N
1624012295.9,286046997.5,N
1624012315.8,286046997.2,N
1624012335.6,286046998.0,N
1624012355.5,286046994.9,N
1624012375.3,286046997.6,N
1624012395.1,286046996.0,N
1624012415.9,286046993.3,N
1624012435.7,286046994.6,N
1624012455.5,286046996.2,N
1624012475.4,286046996.4,N
1624012495.2,286046996.4,N
1624012515.1,286046993.3,N
1624012516.0,286046993.3,N
1624012535.8,286046994.5,N
1624012555.6,286046994.7,N
1624012575.5,286046992.2,N
1624012595.3,286046991.9,N
1624012615.1,286046992.0,N
1624012635.9,286046993.2,N
1624012655.7,286046993.1,N
1624012675.6,286046991.8,N
1624012695.4,286046994.3,N
1624012715.2,286046993.9,N
1624012735.1,286046994.7,N
1624012736.0,286046994.7,N
1624012755.8,286046992.5,N
1624012775.6,286046990.1,N
1624012795.5,286046993.0,Y
1624012815.3,286046999.0,P
1624012835.2,286046998.4,N
1624012855.9,286046999.1,N
1624012875.7,286046999.3,N
1624012895.6,286046998.7,N
1624012915.4,286046999.2,N
1624012935.2,286046996.8,N
1624012955.1,286046997.4,N
1624012956.0,286046997.4,N
1624012975.8,286046999.5,N
1624012995.7,286046999.4,N
1624013015.5,286046999.2,N
1624013035.3,286046996.6,N
1624013055.2,286046997.8,N
1624013075.0,286046997.3,N
1624013075.9,286046997.3,N
1624013095.7,286046997.4,N
1624013115.6,286046997.6,N
1624013135.4,286046994.9,Y
1624013155.3,286046998.7,P
1624013175.1,286046997.0,P
1624013176.0,286046997.0,P
1624013195.8,286046996.8,Y
1624013215.7,286046999.9,P
1624013235.5,286047000.7,N
1624013255.4,286047000.0,N
1624013275.2,286047000.1,N
1624013295.0,286047001.1,N
1624013295.9,286047001.1,N
1624013315.8,286046998.2,N
1624013335.6,286047001.1,N
1624013355.4,286046998.2,N
1624013375.3,286046998.1,N
1624013395.1,286047001.2,N
1624013415.9,286047000.9,N
1624013435.7,286047002.8,N
1624013455.5,286047002.8,N
1624013475.4,286047000.0,N
1624013495.2,286046998.9,N
1624013515.0,286046998.8,N
1624013515.9,286046998.8,N
1624013535.8,286046998.8,N
1624013555.6,286046998.6,N
1624013575.5,286046998.7,N
1624013595.3,286046999.0,N
1624013615.1,286046997.4,N
1624013635.9,286046996.5,N
1624013655.7,286046997.2,N
1624013675.6,286046997.3,N
1624013695.4,286046995.3,N
1624013715.2,286046997.8,N
1624013735.1,286046997.1,N
1624013736.0,286046997.1,N
1624013755.8,286046996.6,N
1624013775.6,286046999.5,N
1624013795.5,286047000.8,N
1624013815.3,286047000.0,N
1624013835.2,286046999.9,N
1624013855.9,286047001.0,N
1624013875.7,286047000.8,N
1624013895.6,286047000.3,N
1624013915.4,286046998.5,N
1624013935.2,286047000.7,N
1624013955.1,286047000.7,N
1624013956.0,286047000.7,N
1624014005.9,286047000.5,E
